ACA267 CYYZ-CYWG

Flight info

Callsign ACA267
Flight time 2h 16m
Altitude 36000
Route AVSEP7 MUSIT DCT SSM DCT AGLIN DCT GOVIT NORAK6
Aircraft A320/M-SDE3FGHIRWY/LB1

Departure

Time 2026-05-06 00:29
Airport Toronto Pearson International Airport (CYYZ)

Arrival

Time 2026-05-06 02:45
Airport Winnipeg / James Armstrong Richardson International Airport (CYWG)
Time Latitude Longitude Altitude Speed Heading
2026-05-05 23:47 43.67917 -79.61563 568 ft 0 kts 317°
2026-05-06 00:12 43.67906 -79.61550 566 ft 4 kts 317°
2026-05-06 00:13 43.67887 -79.61524 558 ft 4 kts 307°
2026-05-06 00:13 43.67874 -79.61493 566 ft 4 kts 281°
2026-05-06 00:13 43.67876 -79.61462 567 ft 3 kts 228°
2026-05-06 00:13 43.67881 -79.61455 571 ft 0 kts 226°
2026-05-06 00:19 43.67873 -79.61466 566 ft 5 kts 226°
2026-05-06 00:19 43.67857 -79.61490 571 ft 2 kts 226°
2026-05-06 00:20 43.67849 -79.61502 565 ft 1 kts 226°
2026-05-06 00:20 43.67841 -79.61514 565 ft 6 kts 226°
2026-05-06 00:20 43.67769 -79.61620 565 ft 19 kts 226°
2026-05-06 00:20 43.67662 -79.61650 567 ft 15 kts 200°
2026-05-06 00:21 43.67586 -79.61727 568 ft 12 kts 221°
2026-05-06 00:21 43.67526 -79.61722 566 ft 11 kts 143°
2026-05-06 00:21 43.67452 -79.61628 565 ft 18 kts 136°
2026-05-06 00:21 43.67347 -79.61490 566 ft 24 kts 136°
2026-05-06 00:22 43.67247 -79.61359 566 ft 16 kts 136°
2026-05-06 00:22 43.67172 -79.61262 564 ft 14 kts 136°
2026-05-06 00:22 43.67149 -79.61152 562 ft 14 kts 56°
2026-05-06 00:22 43.67224 -79.61044 560 ft 19 kts 46°
2026-05-06 00:23 43.67321 -79.60903 559 ft 21 kts 46°
2026-05-06 00:23 43.67423 -79.60756 559 ft 22 kts 46°
2026-05-06 00:23 43.67526 -79.60606 561 ft 22 kts 46°
2026-05-06 00:23 43.67631 -79.60454 565 ft 22 kts 46°
2026-05-06 00:24 43.67739 -79.60298 562 ft 23 kts 46°
2026-05-06 00:24 43.67845 -79.60142 564 ft 22 kts 46°
2026-05-06 00:24 43.67954 -79.59984 565 ft 22 kts 46°
2026-05-06 00:24 43.68030 -79.59857 568 ft 15 kts 77°
2026-05-06 00:25 43.67999 -79.59783 559 ft 1 kts 137°
2026-05-06 00:27 43.67988 -79.59770 560 ft 7 kts 138°
2026-05-06 00:27 43.67921 -79.59719 565 ft 13 kts 188°
2026-05-06 00:27 43.67890 -79.59747 563 ft 0 kts 229°
2026-05-06 00:27 43.67890 -79.59748 563 ft 1 kts 229°
2026-05-06 00:28 43.67793 -79.59891 561 ft 54 kts 226°
2026-05-06 00:28 43.67380 -79.60491 567 ft 116 kts 226°
2026-05-06 00:28 43.66696 -79.61484 569 ft 166 kts 227°
2026-05-06 00:28 43.65878 -79.62674 1031 ft 173 kts 228°
2026-05-06 00:29 43.65027 -79.63859 1727 ft 175 kts 225°
2026-05-06 00:29 43.64153 -79.65049 2379 ft 178 kts 225°
2026-05-06 00:29 43.63246 -79.66292 2802 ft 193 kts 226°
2026-05-06 00:29 43.62245 -79.67682 3049 ft 217 kts 226°
2026-05-06 00:30 43.61136 -79.69219 3382 ft 241 kts 226°
2026-05-06 00:30 43.59910 -79.70915 3944 ft 255 kts 227°
2026-05-06 00:30 43.58793 -79.72816 4764 ft 256 kts 246°
2026-05-06 00:30 43.58325 -79.75133 5707 ft 250 kts 269°
2026-05-06 00:31 43.58614 -79.77467 6668 ft 249 kts 290°
2026-05-06 00:31 43.59619 -79.79448 7531 ft 260 kts 311°
2026-05-06 00:31 43.61118 -79.80925 8335 ft 268 kts 317°
2026-05-06 00:31 43.62685 -79.82361 9086 ft 273 kts 316°
2026-05-06 00:32 43.64277 -79.83821 9807 ft 278 kts 315°
2026-05-06 00:32 43.65901 -79.85319 10360 ft 288 kts 315°
2026-05-06 00:32 43.67627 -79.86938 10546 ft 311 kts 316°
2026-05-06 00:32 43.69434 -79.88630 10964 ft 323 kts 316°
2026-05-06 00:33 43.71314 -79.90368 11630 ft 327 kts 317°
2026-05-06 00:33 43.71687 -79.90711 11770 ft 328 kts 317°
2026-05-06 00:33 43.73594 -79.92463 12496 ft 330 kts 317°
2026-05-06 00:33 43.75509 -79.94227 13215 ft 332 kts 317°
2026-05-06 00:34 43.77433 -79.96008 13885 ft 334 kts 317°
2026-05-06 00:34 43.79375 -79.97813 14522 ft 337 kts 316°
2026-05-06 00:34 43.81330 -79.99637 15101 ft 340 kts 316°
2026-05-06 00:34 43.83300 -80.01478 15666 ft 345 kts 316°
2026-05-06 00:35 43.85272 -80.03324 16212 ft 349 kts 315°
2026-05-06 00:35 43.87295 -80.05218 16756 ft 353 kts 315°
2026-05-06 00:35 43.89344 -80.07138 17295 ft 358 kts 315°
2026-05-06 00:35 43.91417 -80.09085 17832 ft 362 kts 315°
2026-05-06 00:36 43.93388 -80.11216 18321 ft 355 kts 305°
2026-05-06 00:36 43.94979 -80.13778 18798 ft 348 kts 297°
2026-05-06 00:36 43.96438 -80.16471 19309 ft 350 kts 297°
2026-05-06 00:36 43.97902 -80.19179 19902 ft 351 kts 297°
2026-05-06 00:37 43.99350 -80.21860 20429 ft 353 kts 297°
2026-05-06 00:37 44.00828 -80.24600 20975 ft 355 kts 297°
2026-05-06 00:37 44.02310 -80.27343 21585 ft 355 kts 297°
2026-05-06 00:37 44.03796 -80.30089 22136 ft 356 kts 297°
2026-05-06 00:38 44.05285 -80.32847 22657 ft 358 kts 297°
2026-05-06 00:38 44.06782 -80.35625 23152 ft 360 kts 297°
2026-05-06 00:38 44.08285 -80.38419 23597 ft 362 kts 297°
2026-05-06 00:38 44.09798 -80.41233 23990 ft 364 kts 297°
2026-05-06 00:39 44.11319 -80.44066 24381 ft 366 kts 297°
2026-05-06 00:39 44.12826 -80.46874 24749 ft 368 kts 297°
2026-05-06 00:39 44.14445 -80.49674 25122 ft 377 kts 303°
2026-05-06 00:39 44.16246 -80.52340 25479 ft 379 kts 303°
2026-05-06 00:40 44.18053 -80.55018 25883 ft 379 kts 303°
2026-05-06 00:40 44.19855 -80.57691 26341 ft 378 kts 303°
2026-05-06 00:40 44.21659 -80.60378 26705 ft 380 kts 303°
2026-05-06 00:40 44.23464 -80.63072 27095 ft 381 kts 302°
2026-05-06 00:41 44.25275 -80.65770 27520 ft 381 kts 301°
2026-05-06 00:41 44.27063 -80.68436 27879 ft 382 kts 301°
2026-05-06 00:41 44.28880 -80.71153 28203 ft 384 kts 301°
2026-05-06 00:41 44.30704 -80.73882 28517 ft 385 kts 301°
2026-05-06 00:42 44.32536 -80.76629 28811 ft 387 kts 301°
2026-05-06 00:42 44.34375 -80.79388 29100 ft 389 kts 301°
2026-05-06 00:42 44.36223 -80.82162 29380 ft 391 kts 301°
2026-05-06 00:42 44.38078 -80.84955 29658 ft 393 kts 301°
2026-05-06 00:43 44.39941 -80.87761 29926 ft 395 kts 301°
2026-05-06 00:43 44.41787 -80.90540 30157 ft 396 kts 301°
2026-05-06 00:43 44.43665 -80.93366 30423 ft 397 kts 301°
2026-05-06 00:43 44.45547 -80.96200 30652 ft 397 kts 301°
2026-05-06 00:44 44.47427 -80.99038 30928 ft 397 kts 301°
2026-05-06 00:44 44.49303 -81.01867 31244 ft 396 kts 301°
2026-05-06 00:44 44.51172 -81.04687 31552 ft 394 kts 301°
2026-05-06 00:44 44.53035 -81.07503 31850 ft 393 kts 301°
2026-05-06 00:45 44.54889 -81.10310 32164 ft 392 kts 301°
2026-05-06 00:45 44.56713 -81.13077 32465 ft 391 kts 301°
2026-05-06 00:45 44.58554 -81.15875 32766 ft 390 kts 301°
2026-05-06 00:45 44.60388 -81.18667 33068 ft 389 kts 301°
2026-05-06 00:46 44.62218 -81.21456 33367 ft 388 kts 301°
2026-05-06 00:46 44.64042 -81.24238 33665 ft 387 kts 301°
2026-05-06 00:46 44.65861 -81.27015 33953 ft 386 kts 301°
2026-05-06 00:46 44.67671 -81.29779 34346 ft 382 kts 302°
2026-05-06 00:47 44.69466 -81.32509 34696 ft 378 kts 302°
2026-05-06 00:47 44.71246 -81.35221 34955 ft 377 kts 302°
2026-05-06 00:47 44.72998 -81.37897 35161 ft 376 kts 302°
2026-05-06 00:47 44.74765 -81.40603 35357 ft 376 kts 302°
2026-05-06 00:48 44.76530 -81.43314 35545 ft 375 kts 302°
2026-05-06 00:48 44.78292 -81.46023 35735 ft 375 kts 302°
2026-05-06 00:48 44.80052 -81.48733 35852 ft 374 kts 302°
2026-05-06 00:49 44.83553 -81.54124 35882 ft 372 kts 302°
2026-05-06 00:49 44.87003 -81.59466 35887 ft 371 kts 302°
2026-05-06 00:50 44.90478 -81.64842 35888 ft 371 kts 302°
2026-05-06 00:50 44.93952 -81.70217 35893 ft 371 kts 302°
2026-05-06 00:51 44.97421 -81.75606 35892 ft 371 kts 302°
2026-05-06 00:51 45.00868 -81.80965 35897 ft 371 kts 302°
2026-05-06 00:52 45.04341 -81.86358 35893 ft 371 kts 302°
2026-05-06 00:52 45.07808 -81.91760 35893 ft 371 kts 302°
2026-05-06 00:53 45.11271 -81.97174 35920 ft 371 kts 302°
2026-05-06 00:53 45.14714 -82.02570 35912 ft 372 kts 302°
2026-05-06 00:54 45.18182 -82.08009 35902 ft 372 kts 302°
2026-05-06 00:54 45.21641 -82.13460 35904 ft 372 kts 302°
2026-05-06 00:55 45.25102 -82.18919 35899 ft 372 kts 302°
2026-05-06 00:55 45.28550 -82.24337 35897 ft 372 kts 302°
2026-05-06 00:56 45.32006 -82.29810 35969 ft 372 kts 302°
2026-05-06 00:56 45.35453 -82.35285 35891 ft 371 kts 302°
2026-05-06 00:57 45.38897 -82.40753 35881 ft 372 kts 302°
2026-05-06 00:57 45.42199 -82.46308 35880 ft 369 kts 299°
2026-05-06 00:58 45.45338 -82.52062 35873 ft 368 kts 298°
2026-05-06 00:58 45.48463 -82.57840 35877 ft 368 kts 298°
2026-05-06 00:59 45.51609 -82.63612 35892 ft 369 kts 298°
2026-05-06 00:59 45.54751 -82.69335 35916 ft 370 kts 299°
2026-05-06 01:00 45.57929 -82.75122 35904 ft 371 kts 299°
2026-05-06 01:00 45.61106 -82.80922 35899 ft 371 kts 299°
2026-05-06 01:01 45.64285 -82.86731 35894 ft 371 kts 299°
2026-05-06 01:01 45.67432 -82.92514 35892 ft 371 kts 298°
2026-05-06 01:02 45.70598 -82.98346 35905 ft 371 kts 299°
2026-05-06 01:02 45.73772 -83.04192 35898 ft 372 kts 299°
2026-05-06 01:03 45.76949 -83.10044 35925 ft 373 kts 299°
2026-05-06 01:03 45.80104 -83.15892 35898 ft 374 kts 299°
2026-05-06 01:04 45.83283 -83.21803 35889 ft 375 kts 299°
2026-05-06 01:04 45.86476 -83.27727 35887 ft 376 kts 299°
2026-05-06 01:05 45.89666 -83.33667 35895 ft 376 kts 299°
2026-05-06 01:05 45.92854 -83.39629 35899 ft 376 kts 299°
2026-05-06 01:06 45.96015 -83.45558 35891 ft 376 kts 299°
2026-05-06 01:06 45.99211 -83.51529 35919 ft 379 kts 300°
2026-05-06 01:07 46.02427 -83.57572 35891 ft 381 kts 300°
2026-05-06 01:07 46.05656 -83.63643 35877 ft 382 kts 300°
2026-05-06 01:08 46.08861 -83.69695 35877 ft 383 kts 300°
2026-05-06 01:08 46.12094 -83.75814 35874 ft 384 kts 300°
2026-05-06 01:09 46.15328 -83.81945 35878 ft 384 kts 300°
2026-05-06 01:09 46.18564 -83.88091 35886 ft 385 kts 300°
2026-05-06 01:10 46.21780 -83.94203 35923 ft 385 kts 300°
2026-05-06 01:10 46.25020 -84.00393 35903 ft 387 kts 300°
2026-05-06 01:11 46.28273 -84.06613 35900 ft 389 kts 300°
2026-05-06 01:11 46.31531 -84.12862 35885 ft 390 kts 300°
2026-05-06 01:12 46.34783 -84.19080 35883 ft 390 kts 300°
2026-05-06 01:12 46.38048 -84.25362 35900 ft 390 kts 300°
2026-05-06 01:13 46.41273 -84.31683 35892 ft 388 kts 296°
2026-05-06 01:13 46.43965 -84.38408 35932 ft 387 kts 294°
2026-05-06 01:14 46.47940 -84.48564 35914 ft 388 kts 294°
2026-05-06 01:14 46.50612 -84.55385 35909 ft 389 kts 294°
2026-05-06 01:15 46.53289 -84.62209 35907 ft 389 kts 294°
2026-05-06 01:15 46.55960 -84.69046 35910 ft 389 kts 294°
2026-05-06 01:16 46.58603 -84.75851 35923 ft 389 kts 294°
2026-05-06 01:16 46.61264 -84.82708 35923 ft 389 kts 294°
2026-05-06 01:17 46.63918 -84.89575 35922 ft 389 kts 294°
2026-05-06 01:17 46.66576 -84.96443 35925 ft 389 kts 294°
2026-05-06 01:18 46.69207 -85.03276 35922 ft 389 kts 294°
2026-05-06 01:18 46.71858 -85.10163 35919 ft 389 kts 294°
2026-05-06 01:19 46.74493 -85.17061 35924 ft 390 kts 294°
2026-05-06 01:19 46.77130 -85.23967 35921 ft 390 kts 294°
2026-05-06 01:20 46.79773 -85.30878 35919 ft 390 kts 294°
2026-05-06 01:20 46.82392 -85.37754 35920 ft 390 kts 294°
2026-05-06 01:21 46.85019 -85.44686 35923 ft 390 kts 294°
2026-05-06 01:21 46.87646 -85.51623 35924 ft 390 kts 294°
2026-05-06 01:22 46.90271 -85.58577 35933 ft 391 kts 294°
2026-05-06 01:22 46.92875 -85.65517 35915 ft 393 kts 294°
2026-05-06 01:23 46.95504 -85.72534 35910 ft 394 kts 294°
2026-05-06 01:23 46.98147 -85.79557 35910 ft 394 kts 294°
2026-05-06 01:24 47.00788 -85.86597 35913 ft 394 kts 294°
2026-05-06 01:24 47.03400 -85.93615 35912 ft 395 kts 294°
2026-05-06 01:25 47.06034 -86.00688 35913 ft 395 kts 294°
2026-05-06 01:25 47.08661 -86.07779 35913 ft 396 kts 294°
2026-05-06 01:26 47.11284 -86.14887 35913 ft 396 kts 294°
2026-05-06 01:26 47.13888 -86.21961 35930 ft 397 kts 294°
2026-05-06 01:27 47.16512 -86.29109 35918 ft 398 kts 294°
2026-05-06 01:27 47.19140 -86.36283 35909 ft 399 kts 294°
2026-05-06 01:28 47.21771 -86.43469 35916 ft 400 kts 294°
2026-05-06 01:28 47.24400 -86.50680 35913 ft 400 kts 294°
2026-05-06 01:29 47.27008 -86.57853 35910 ft 400 kts 294°
2026-05-06 01:29 47.29633 -86.65087 35912 ft 400 kts 294°
2026-05-06 01:30 47.32253 -86.72329 35914 ft 401 kts 294°
2026-05-06 01:30 47.34869 -86.79580 35935 ft 401 kts 294°
2026-05-06 01:31 47.37466 -86.86811 35928 ft 402 kts 294°
2026-05-06 01:31 47.40088 -86.94106 35915 ft 403 kts 294°
2026-05-06 01:32 47.42712 -87.01416 35922 ft 403 kts 294°
2026-05-06 01:32 47.45327 -87.08746 35921 ft 403 kts 294°
2026-05-06 01:33 47.47915 -87.16041 35912 ft 404 kts 294°
2026-05-06 01:33 47.50524 -87.23401 35910 ft 404 kts 294°
2026-05-06 01:34 47.53129 -87.30768 35914 ft 404 kts 294°
2026-05-06 01:34 47.55730 -87.38142 35921 ft 404 kts 294°
2026-05-06 01:35 47.58314 -87.45481 35923 ft 405 kts 294°
2026-05-06 01:35 47.60917 -87.52889 35917 ft 406 kts 294°
2026-05-06 01:36 47.63520 -87.60318 35912 ft 406 kts 294°
2026-05-06 01:36 47.66114 -87.67770 35911 ft 407 kts 294°
2026-05-06 01:37 47.68691 -87.75178 35910 ft 407 kts 294°
2026-05-06 01:37 47.71292 -87.82647 35911 ft 407 kts 294°
2026-05-06 01:38 47.73877 -87.90125 35913 ft 407 kts 294°
2026-05-06 01:38 47.76455 -87.97621 35912 ft 407 kts 294°
2026-05-06 01:39 47.79019 -88.05070 35929 ft 408 kts 294°
2026-05-06 01:39 47.81599 -88.12591 35913 ft 409 kts 294°
2026-05-06 01:40 47.84180 -88.20138 35909 ft 409 kts 294°
2026-05-06 01:40 47.86759 -88.27693 35908 ft 410 kts 294°
2026-05-06 01:41 47.91642 -88.42082 35904 ft 410 kts 294°
2026-05-06 01:42 47.94208 -88.49680 35907 ft 410 kts 294°
2026-05-06 01:42 47.96757 -88.57235 35904 ft 410 kts 294°
2026-05-06 01:43 47.99318 -88.64846 35908 ft 410 kts 294°
2026-05-06 01:43 48.01872 -88.72472 35922 ft 411 kts 294°
2026-05-06 01:44 48.04422 -88.80126 35905 ft 412 kts 294°
2026-05-06 01:44 48.06958 -88.87739 35903 ft 412 kts 294°
2026-05-06 01:45 48.09510 -88.95424 35903 ft 413 kts 294°
2026-05-06 01:45 48.12059 -89.03122 35907 ft 413 kts 294°
2026-05-06 01:46 48.14608 -89.10829 35904 ft 413 kts 294°
2026-05-06 01:46 48.17151 -89.18550 35907 ft 413 kts 294°
2026-05-06 01:47 48.19667 -89.26230 35905 ft 413 kts 294°
2026-05-06 01:47 48.22198 -89.33974 35906 ft 414 kts 294°
2026-05-06 01:48 48.24728 -89.41733 35911 ft 415 kts 294°
2026-05-06 01:48 48.26806 -89.49776 35909 ft 413 kts 288°
2026-05-06 01:49 48.28715 -89.57927 35896 ft 414 kts 287°
2026-05-06 01:49 48.30613 -89.66038 35919 ft 415 kts 288°
2026-05-06 01:50 48.32523 -89.74206 35926 ft 415 kts 287°
2026-05-06 01:50 48.34417 -89.82393 35934 ft 415 kts 287°
2026-05-06 01:51 48.36313 -89.90583 35939 ft 415 kts 287°
2026-05-06 01:51 48.38207 -89.98776 35940 ft 415 kts 287°
2026-05-06 01:52 48.40085 -90.06982 35941 ft 415 kts 287°
2026-05-06 01:52 48.41939 -90.15142 35941 ft 415 kts 287°
2026-05-06 01:53 48.43815 -90.23359 35960 ft 415 kts 288°
2026-05-06 01:53 48.45690 -90.31597 35938 ft 416 kts 287°
2026-05-06 01:54 48.47558 -90.39855 35951 ft 417 kts 287°
2026-05-06 01:54 48.49396 -90.48087 35934 ft 417 kts 287°
2026-05-06 01:55 48.51252 -90.56382 35946 ft 418 kts 287°
2026-05-06 01:55 48.53104 -90.64693 35945 ft 418 kts 287°
2026-05-06 01:56 48.54958 -90.73003 35960 ft 418 kts 287°
2026-05-06 01:56 48.56794 -90.81270 35963 ft 418 kts 287°
2026-05-06 01:57 48.58632 -90.89601 35958 ft 418 kts 287°
2026-05-06 01:57 48.60471 -90.97946 35959 ft 419 kts 287°
2026-05-06 01:58 48.62303 -91.06307 35961 ft 419 kts 287°
2026-05-06 01:58 48.64111 -91.14625 35961 ft 419 kts 287°
2026-05-06 01:59 48.65925 -91.23006 35976 ft 420 kts 287°
2026-05-06 01:59 48.67740 -91.31418 35967 ft 421 kts 287°
2026-05-06 02:00 48.69556 -91.39836 35969 ft 421 kts 287°
2026-05-06 02:00 48.71374 -91.48268 35970 ft 421 kts 287°
2026-05-06 02:01 48.73167 -91.56662 35966 ft 422 kts 287°
2026-05-06 02:01 48.74962 -91.65119 35978 ft 422 kts 287°
2026-05-06 02:02 48.76759 -91.73587 35979 ft 422 kts 287°
2026-05-06 02:02 48.78545 -91.82063 35977 ft 422 kts 287°
2026-05-06 02:03 48.80320 -91.90546 35980 ft 422 kts 287°
2026-05-06 02:03 48.82082 -91.98979 35980 ft 422 kts 287°
2026-05-06 02:04 48.83853 -92.07484 35986 ft 422 kts 287°
2026-05-06 02:04 48.85625 -92.15983 35991 ft 422 kts 287°
2026-05-06 02:05 48.87381 -92.24496 35985 ft 422 kts 287°
2026-05-06 02:05 48.89115 -92.32963 35992 ft 423 kts 286°
2026-05-06 02:06 48.90852 -92.41492 35987 ft 423 kts 287°
2026-05-06 02:06 48.92597 -92.50030 35996 ft 423 kts 287°
2026-05-06 02:07 48.94336 -92.58577 35992 ft 423 kts 286°
2026-05-06 02:07 48.96054 -92.67067 35990 ft 423 kts 286°
2026-05-06 02:08 48.97777 -92.75626 35991 ft 423 kts 286°
2026-05-06 02:08 48.99490 -92.84188 35999 ft 423 kts 286°
2026-05-06 02:09 49.01186 -92.92702 36003 ft 423 kts 286°
2026-05-06 02:09 49.02895 -93.01281 36007 ft 423 kts 286°
2026-05-06 02:10 49.04596 -93.09857 36012 ft 423 kts 286°
2026-05-06 02:10 49.06292 -93.18461 36009 ft 424 kts 286°
2026-05-06 02:11 49.07962 -93.27026 36010 ft 425 kts 286°
2026-05-06 02:11 49.09646 -93.35665 36009 ft 425 kts 286°
2026-05-06 02:12 49.11327 -93.44310 36008 ft 425 kts 286°
2026-05-06 02:12 49.12996 -93.52973 36009 ft 425 kts 286°
2026-05-06 02:13 49.14652 -93.61582 36008 ft 426 kts 286°
2026-05-06 02:13 49.16314 -93.70259 36013 ft 426 kts 286°
2026-05-06 02:14 49.17973 -93.78944 36013 ft 426 kts 286°
2026-05-06 02:14 49.19628 -93.87633 36017 ft 426 kts 286°
2026-05-06 02:15 49.21278 -93.96326 36022 ft 426 kts 286°
2026-05-06 02:15 49.22899 -94.04973 36017 ft 426 kts 286°
2026-05-06 02:16 49.24531 -94.13689 36025 ft 426 kts 286°
2026-05-06 02:16 49.26156 -94.22424 36024 ft 427 kts 286°
2026-05-06 02:17 49.27773 -94.31171 36026 ft 427 kts 286°
2026-05-06 02:17 49.29385 -94.39920 35738 ft 426 kts 286°
2026-05-06 02:18 49.30172 -94.44206 35290 ft 421 kts 286°
2026-05-06 02:18 49.30961 -94.48497 34840 ft 417 kts 286°
2026-05-06 02:18 49.31746 -94.52760 34337 ft 414 kts 286°
2026-05-06 02:18 49.32524 -94.57000 33805 ft 412 kts 286°
2026-05-06 02:19 49.33293 -94.61213 33290 ft 408 kts 286°
2026-05-06 02:19 49.34051 -94.65384 32811 ft 404 kts 286°
2026-05-06 02:19 49.34799 -94.69519 32337 ft 401 kts 286°
2026-05-06 02:19 49.35540 -94.73621 31862 ft 397 kts 286°
2026-05-06 02:20 49.36988 -94.81664 30944 ft 391 kts 286°
2026-05-06 02:20 49.37707 -94.85664 30490 ft 388 kts 286°
2026-05-06 02:20 49.38421 -94.89636 30038 ft 385 kts 286°
2026-05-06 02:21 49.39128 -94.93579 29555 ft 381 kts 286°
2026-05-06 02:21 49.39822 -94.97473 29135 ft 375 kts 286°
2026-05-06 02:21 49.40503 -95.01313 28727 ft 371 kts 286°
2026-05-06 02:21 49.41179 -95.05109 28317 ft 366 kts 286°
2026-05-06 02:22 49.41836 -95.08813 27926 ft 362 kts 286°
2026-05-06 02:22 49.42495 -95.12523 27522 ft 358 kts 287°
2026-05-06 02:22 49.43148 -95.16192 27116 ft 354 kts 287°
2026-05-06 02:22 49.43790 -95.19822 26715 ft 350 kts 287°
2026-05-06 02:23 49.44423 -95.23411 26317 ft 347 kts 287°
2026-05-06 02:23 49.45049 -95.26975 25910 ft 344 kts 287°
2026-05-06 02:23 49.45666 -95.30504 25513 ft 340 kts 287°
2026-05-06 02:23 49.46278 -95.34004 25097 ft 338 kts 287°
2026-05-06 02:24 49.46875 -95.37435 24690 ft 336 kts 287°
2026-05-06 02:24 49.47479 -95.40893 24275 ft 334 kts 287°
2026-05-06 02:24 49.48078 -95.44333 23846 ft 333 kts 287°
2026-05-06 02:24 49.48676 -95.47764 23394 ft 332 kts 287°
2026-05-06 02:25 49.49269 -95.51176 22960 ft 329 kts 287°
2026-05-06 02:25 49.49851 -95.54560 22545 ft 326 kts 287°
2026-05-06 02:25 49.50426 -95.57912 22148 ft 323 kts 287°
2026-05-06 02:25 49.50996 -95.61238 21746 ft 320 kts 287°
2026-05-06 02:26 49.51564 -95.64543 21347 ft 318 kts 287°
2026-05-06 02:26 49.52117 -95.67775 20961 ft 316 kts 287°
2026-05-06 02:26 49.52673 -95.71039 20571 ft 314 kts 287°
2026-05-06 02:26 49.53224 -95.74278 20188 ft 312 kts 287°
2026-05-06 02:27 49.53774 -95.77498 19811 ft 310 kts 287°
2026-05-06 02:27 49.54323 -95.80702 19425 ft 309 kts 288°
2026-05-06 02:27 49.55081 -95.83773 19031 ft 306 kts 295°
2026-05-06 02:27 49.55925 -95.86780 18658 ft 305 kts 295°
2026-05-06 02:28 49.56761 -95.89781 18266 ft 304 kts 295°
2026-05-06 02:28 49.57579 -95.92735 17864 ft 303 kts 295°
2026-05-06 02:28 49.58397 -95.95709 17492 ft 301 kts 295°
2026-05-06 02:28 49.59211 -95.98673 17079 ft 300 kts 295°
2026-05-06 02:29 49.60021 -96.01624 16709 ft 298 kts 295°
2026-05-06 02:29 49.60826 -96.04566 16342 ft 297 kts 295°
2026-05-06 02:29 49.61628 -96.07493 15981 ft 296 kts 295°
2026-05-06 02:29 49.62430 -96.10406 15622 ft 295 kts 295°
2026-05-06 02:30 49.63228 -96.13308 15265 ft 293 kts 295°
2026-05-06 02:30 49.64021 -96.16204 14909 ft 293 kts 295°
2026-05-06 02:30 49.64810 -96.19092 14555 ft 292 kts 295°
2026-05-06 02:30 49.65586 -96.21935 14201 ft 291 kts 295°
2026-05-06 02:31 49.66371 -96.24810 13842 ft 291 kts 295°
2026-05-06 02:31 49.67154 -96.27680 13456 ft 289 kts 295°
2026-05-06 02:31 49.67930 -96.30532 13085 ft 287 kts 295°
2026-05-06 02:31 49.68699 -96.33363 12713 ft 285 kts 296°
2026-05-06 02:32 49.69459 -96.36170 12367 ft 282 kts 295°
2026-05-06 02:32 49.70214 -96.38966 12003 ft 281 kts 295°
2026-05-06 02:32 49.70954 -96.41722 11809 ft 272 kts 295°
2026-05-06 02:32 49.71656 -96.44337 11576 ft 257 kts 296°
2026-05-06 02:33 49.72333 -96.46848 11116 ft 251 kts 296°
2026-05-06 02:33 49.72776 -96.48490 10798 ft 249 kts 296°
2026-05-06 02:33 49.73997 -96.54408 9947 ft 253 kts 279°
2026-05-06 02:34 49.74188 -96.57106 9570 ft 252 kts 280°
2026-05-06 02:34 49.74384 -96.59786 9199 ft 250 kts 280°
2026-05-06 02:34 49.74576 -96.62451 8836 ft 249 kts 280°
2026-05-06 02:34 49.74765 -96.65098 8482 ft 246 kts 280°
2026-05-06 02:35 49.74953 -96.67724 8105 ft 245 kts 280°
2026-05-06 02:35 49.75140 -96.70334 7742 ft 244 kts 280°
2026-05-06 02:35 49.75150 -96.72917 7378 ft 247 kts 261°
2026-05-06 02:35 49.74387 -96.75283 7027 ft 247 kts 236°
2026-05-06 02:36 49.73298 -96.77311 6718 ft 244 kts 233°
2026-05-06 02:36 49.72180 -96.79273 6392 ft 242 kts 232°
2026-05-06 02:36 49.71118 -96.81274 6066 ft 239 kts 244°
2026-05-06 02:36 49.70585 -96.83624 5796 ft 229 kts 269°
2026-05-06 02:37 49.70754 -96.86010 5624 ft 222 kts 294°
2026-05-06 02:37 49.71425 -96.88141 5464 ft 221 kts 301°
2026-05-06 02:37 49.72131 -96.90227 5300 ft 215 kts 301°
2026-05-06 02:37 49.72806 -96.92228 5138 ft 206 kts 301°
2026-05-06 02:38 49.73448 -96.94127 4972 ft 200 kts 301°
2026-05-06 02:38 49.74093 -96.96025 4813 ft 199 kts 301°
2026-05-06 02:38 49.74732 -96.97911 4635 ft 196 kts 301°
2026-05-06 02:38 49.75345 -96.99736 4526 ft 186 kts 301°
2026-05-06 02:39 49.75921 -97.01454 4359 ft 175 kts 301°
2026-05-06 02:39 49.76458 -97.03053 4231 ft 159 kts 302°
2026-05-06 02:39 49.76941 -97.04495 4174 ft 144 kts 302°
2026-05-06 02:39 49.77390 -97.05828 4144 ft 137 kts 303°
2026-05-06 02:40 49.77992 -97.06894 3995 ft 131 kts 320°
2026-05-06 02:40 49.78654 -97.07875 3810 ft 132 kts 320°
2026-05-06 02:40 49.79327 -97.08835 3628 ft 131 kts 320°
2026-05-06 02:40 49.79996 -97.09769 3446 ft 131 kts 320°
2026-05-06 02:41 49.80675 -97.10705 3264 ft 131 kts 320°
2026-05-06 02:41 49.81354 -97.11636 3074 ft 130 kts 321°
2026-05-06 02:41 49.82033 -97.12564 2891 ft 130 kts 321°
2026-05-06 02:41 49.82710 -97.13488 2704 ft 130 kts 321°
2026-05-06 02:42 49.83385 -97.14409 2524 ft 129 kts 320°
2026-05-06 02:42 49.84057 -97.15326 2335 ft 129 kts 320°
2026-05-06 02:42 49.84730 -97.16244 2156 ft 129 kts 321°
2026-05-06 02:42 49.85399 -97.17158 1969 ft 128 kts 321°
2026-05-06 02:43 49.86055 -97.18057 1789 ft 127 kts 320°
2026-05-06 02:43 49.86722 -97.18973 1602 ft 128 kts 319°
2026-05-06 02:43 49.87389 -97.19894 1376 ft 129 kts 319°
2026-05-06 02:43 49.88067 -97.20803 1209 ft 128 kts 319°
2026-05-06 02:44 49.88738 -97.21711 1035 ft 127 kts 317°
2026-05-06 02:44 49.89400 -97.22632 851 ft 128 kts 317°
2026-05-06 02:44 49.90042 -97.23495 787 ft 109 kts 318°
2026-05-06 02:44 49.90454 -97.24072 784 ft 57 kts 318°
2026-05-06 02:45 49.90667 -97.24351 788 ft 24 kts 331°
2026-05-06 02:45 49.90744 -97.24245 788 ft 16 kts 78°
2026-05-06 02:45 49.90762 -97.24098 790 ft 13 kts 79°
2026-05-06 02:45 49.90787 -97.23899 786 ft 26 kts 77°
2026-05-06 02:46 49.90821 -97.23656 782 ft 20 kts 79°
2026-05-06 02:46 49.90846 -97.23462 781 ft 16 kts 78°
2026-05-06 02:46 49.90818 -97.23321 781 ft 13 kts 150°
2026-05-06 02:46 49.90735 -97.23266 781 ft 12 kts 156°
2026-05-06 02:47 49.90681 -97.23166 783 ft 16 kts 89°
2026-05-06 02:47 49.90705 -97.22968 782 ft 19 kts 79°
2026-05-06 02:47 49.90721 -97.22777 783 ft 15 kts 105°
2026-05-06 02:47 49.90679 -97.22745 784 ft 1 kts 159°
2026-05-06 02:48 49.90670 -97.22741 784 ft 2 kts 160°
2026-05-06 02:48 49.90660 -97.22735 784 ft 2 kts 160°
2026-05-06 02:48 49.90652 -97.22731 784 ft 3 kts 160°